OpenBCM V1.08-5-g2f4a (Linux)

Packet Radio Mailbox

IZ3LSV

[San Dona' di P. JN]

 Login: GUEST





  
I0OJJ  > KEPS     23.05.25 02:44l 357 Lines 16943 Bytes #64 (0) @ AMSAT
BID : ORB25143.1
Read: GUEST
Subj: 2Line Orbital Elements 25143.AMSAT
Path: IZ3LSV<IK6IHL<IK7NXU<HB9ON<DK0WUE<PD0LPM<IR0AAB<I0OJJ<I0OJJ
Sent: 250523/0025z @:I0OJJ.ITA.EU [Rome] obcm1.08-10-g596e

>From i0ojj%i0ojj.ita.eu@i0ojj.ampr.org Fri May 23 02:25:06 2025
Received: from i0ojj.ampr.org by i0ojj.ampr.org (JNOS2.0p.8) with SMTP
	id AA17032214 ; Fri, 23 May 2025 02:25:06 +0200
Message-Id: <ORB25143.1@i0ojj.bbs>
>From: i0ojj@i0ojj.ita.eu
X-JNOS-User-Port: Telnet   (i0ojj @ 44.134.109.10)  -> Sending message

From: I0OJJ @ I0OJJ.ITA.EU (Gustavo)
To:   KEPS @ AMSAT
X-Info: This message was generated automatically


QST de W1STR

AMSAT Orbital Elements for Amateur Satellites in TLE Format
>From Orbital Analysis Office
New England Sci-Tech STEM Education Center
Natick, MA May 23, 2025
To all radio amateurs


These element sets describe the orbits of various satellites 
in use by the amateur radio community. For details see:
www.amsat.org/keplerian-elements-formats/

A daily update of element sets is available at:
www.amsat.org/tle/daily-bulletin.txt
or without bulletin text:
www.amsat.org/tle/dailytle.txt


AO-07
1 07530U 74089B   25142.54704227 -.00000025  00000-0  13655-3 0  9999
2 07530 101.9933 146.6189 0012389 154.8572 336.1591 12.53689193311801
UO-11
1 14781U 84021B   25142.46134102  .00001460  00000-0  15963-3 0  9999
2 14781  97.7534 109.1907 0008948  44.7896 315.4043 14.89334321198941
AO-27
1 22825U 93061C   25142.10566153  .00000092  00000-0  52136-4 0  9991
2 22825  98.7374 203.5678 0008809 159.9041 200.2489 14.30792931651077
FO-29
1 24278U 96046B   25142.63857909 -.00000032  00000-0  28523-5 0  9990
2 24278  98.5780  38.8897 0350549  29.2450 332.7825 13.53247661420344
NOAA-15
1 25338U 98030A   25142.86120486  .00000216  00000-0  10629-3 0  9990
2 25338  98.5360 168.4181 0011232  55.9244 304.3001 14.26969148405876
GO-32
1 25397U 98043D   25142.49744349  .00000083  00000-0  56211-4 0  9998
2 25397  98.9695 121.2404 0000241 229.4796 130.6362 14.24310568395714
ISS
1 25544U 98067A   25142.86026810  .00008748  00000-0  16292-3 0  9995
2 25544  51.6359  72.5540 0002151 137.7508 222.3646 15.49671395511231
NO-44
1 26931U 01043C   25142.48313262  .00000122  00000-0  76769-4 0  9996
2 26931  67.0491 174.6297 0005907 274.5507  85.4920 14.31725407234514
SO-50
1 27607U 02058C   25142.53071167  .00001023  00000-0  14542-3 0  9996
2 27607  64.5531 256.2461 0054208 338.1636  21.7158 14.81578614206550
CO-55
1 27844U 03031E   25142.55139812  .00000325  00000-0  16057-3 0  9992
2 27844  98.6760 151.0575 0008542 235.5909 124.4462 14.23982345136070
CO-57
1 27848U 03031J   25142.49139620  .00000275  00000-0  14069-3 0  9991
2 27848  98.6792 151.0179 0008298 255.2641 104.7618 14.23318847135791
RS-22
1 27939U 03042A   25142.87898606  .00001100  00000-0  18222-3 0  9995
2 27939  98.3270 311.9052 0012624  69.1160  66.9884 14.72309337158228
NOAA-18
1 28654U 05018A   25142.78537562  .00000180  00000-0  11891-3 0  9998
2 28654  98.8421 222.4614 0014421 175.5223 184.6081 14.13601405 31239
CO-58
1 28895U 05043F   25142.35625415  .00001592  00000-0  26783-3 0  9995
2 28895  98.2475 286.4819 0014553  10.1772 349.9726 14.70955777 44261
CO-65
1 32785U 08021C   25142.51289095  .00004535  00000-0  33031-3 0  9999
2 32785  97.7847 113.5462 0007579 275.1051  84.9309 15.04257783926361
CO-66
1 32791U 08021J   25142.45035262  .00009855  00000-0  48405-3 0  9995
2 32791  97.7265 122.0946 0002501 194.8208 165.2952 15.18275950927746
RS-30
1 32953U 08025A   25142.85758211  .00000007  00000-0 -25491-4 0  9991
2 32953  82.5037 238.1963 0020491  86.1472 274.1950 12.43164420771331
NOAA-19
1 33591U 09005A   25142.85974593  .00000167  00000-0  11285-3 0  9993
2 33591  98.9978 207.4639 0014568  57.0898 303.1673 14.13365126839606
SRMSAT
1 37841U 11058D   25142.63323481  .00000427  00000-0  87876-4 0  9995
2 37841  19.9720 263.1554 0011627 227.4996 161.7059 14.11430591702574
ZACUBE-1
1 39417U 13066B   25142.39993083  .00004101  00000-0  35903-3 0  9997
2 39417  97.7781  99.5137 0045645 111.9721 248.6360 14.96465083622190
Delfi-N3xt
1 39428U 13066N   25142.74432183  .00006433  00000-0  65764-3 0  9995
2 39428  97.8357  60.5974 0087007  59.8343 301.1458 14.88094505616607
GOMX-1
1 39430U 13066Q   25142.82722365  .00001348  00000-0  21697-3 0  9998
2 39430  97.6856   2.5805 0131144 249.0997 109.6128 14.67570750612802
LO-74
1 39440U 13066AA  25142.40963907  .00003147  00000-0  32284-3 0  9995
2 39440  97.8485  87.0984 0060577 239.3997 120.1237 14.89816986618737
AO-73
1 39444U 13066AE  25142.82861966  .00006223  00000-0  46896-3 0  9999
2 39444  97.7826 104.6765 0043941  86.8517 273.7734 15.02063308621516
DTUSAT-2
1 40030U 14033W   25142.44345133  .00006146  00000-0  40316-3 0  9993
2 40030  98.0543 113.3902 0011059 115.7418 244.4951 15.08016460593669
EO-80
1 40032U 14033Y   25142.46474722  .00007051  00000-0  46095-3 0  9990
2 40032  98.0419 113.0921 0010314  66.3170 293.9138 15.08092254593649
LILACSAT-2
1 40908U 15049K   25142.85582214  .00009783  00000-0  25944-3 0  9993
2 40908  97.5071 162.7789 0008272 212.6922 147.3812 15.38500346535504
IO-86
1 40931U 15052B   25103.16584653  .00001824  00000-0  15574-3 0  9999
2 40931   5.9984   7.7323 0012484  15.4851 344.5658 14.78734415515920
Horyu-4
1 41340U 16012D   25142.61348391  .00019368  00000-0  52930-3 0  9990
2 41340  30.9967 252.6936 0006462 224.2784 135.7345 15.36123467510022
Lapan A3
1 41603U 16040E   25142.83972063  .00003058  00000-0  10852-3 0  9992
2 41603  97.1372 148.1451 0010239 342.9481  17.1415 15.29738266495078
CAS-2T
1 41847U 16066G   25142.24259645  .00001038  00000-0  15787-3 0  9997
2 41847  98.4203 216.8640 0345312 233.8644 123.0134 14.43423558448376
CAS-4B
1 42759U 17034B   25142.88555205  .00051365  00000-0  58827-3 0  9997
2 42759  43.0074  67.1658 0019113 172.5950 187.5200 15.61103789439835
CAS-4A
1 42761U 17034D   25142.86830836  .00052977  00000-0  58011-3 0  9999
2 42761  43.0116  64.6054 0020466 176.5983 183.5024 15.62212752439854
TechnoSat
1 42829U 17042E   25142.71915226  .00002513  00000-0  19777-3 0  9991
2 42829  97.3926 312.2873 0013308 345.4673  14.6167 15.01621729428043
AO-91
1 43017U 17073E   25142.56973085  .00005857  00000-0  30494-3 0  9998
2 43017  97.5295  13.8016 0171992 227.5180 131.1404 15.04443997406502
S-Net D
1 43186U 18014G   25142.29631981  .00004347  00000-0  25935-3 0  9994
2 43186  97.5642  45.3898 0007429 293.2329  66.8119 15.11647060399616
S-Net B
1 43187U 18014H   25142.69864772  .00004019  00000-0  24017-3 0  9991
2 43187  97.5648  45.7588 0008038 285.4351  74.5991 15.11631075399677
S-Net A
1 43188U 18014J   25142.29676121  .00004335  00000-0  25858-3 0  9992
2 43188  97.5656  45.5089 0007960 287.9710  72.0652 15.11652226399612
S-Net C
1 43189U 18014K   25142.76719044  .00003956  00000-0  23642-3 0  9994
2 43189  97.5671  45.9858 0009400 276.6326  83.3834 15.11628727398230
Ten-Koh
1 43677U 18084G   25142.39107937  .00002186  00000-0  17869-3 0  9992
2 43677  98.0883 313.9264 0005511 340.5999  19.5013 15.00492652357518
PO-101
1 43678U 18084H   25142.82422244  .00002161  00000-0  18719-3 0  9990
2 43678  98.1018 318.2724 0007463 355.7787   4.3370 14.98248698357726
QO-100
1 43700U 18090A   25142.85915638  .00000154  00000-0  00000+0 0  9990
2 43700   0.0139 338.7857 0001944 123.1065 113.9231  1.00270960 24007
MinXSS-2
1 43758U 18099A   25142.15950964  .00013041  00000-0  52207-3 0  9995
2 43758  97.5027 208.1423 0011524 212.5067 147.5462 15.25134349354160
AO-95
1 43770U 18099N   25142.44414318  .00008324  00000-0  42529-3 0  9993
2 43770  97.4927 200.7334 0009025 273.8092  86.2109 15.16903235353807
RANGE-A
1 43773U 18099R   25142.56407423  .00003919  00000-0  25212-3 0  9993
2 43773  97.4492 191.4889 0009859 250.0915 109.9252 15.08920403353500
MOVE-II
1 43780U 18099Y   25142.20097064  .00159071  00000-0  13760-2 0  9993
2 43780  97.4661 216.5248 0006635 199.2161 160.8851 15.68665867354913
SNUSat 2
1 43782U 18099AA  25142.63508195  .00007233  00000-0  39754-3 0  9998
2 43782  97.4609 197.8189 0011586 208.4187 151.6414 15.14336966353787
SnugLite
1 43784U 18099AC  25142.41241625  .00008230  00000-0  41695-3 0  9993
2 43784  97.4429 197.1252 0003216 188.2065 171.9117 15.17227409353884
ITASat 1
1 43786U 18099AE  25142.55466197  .00005597  00000-0  32275-3 0  9990
2 43786  97.4582 197.3027 0012695 267.1110  92.8668 15.12704037353735
EAGLET 1
1 43790U 18099AJ  25142.71249212  .00003683  00000-0  23732-3 0  9992
2 43790  97.4772 197.4715 0010720 247.2858 112.7238 15.08896967353375
ESEO
1 43792U 18099AL  25142.55459364  .00002313  00000-0  17817-3 0  9993
2 43792  97.4467 190.8184 0012121 223.4971 136.5299 15.02533874353116
CSIM
1 43793U 18099AM  25142.17773309  .00148420  00000-0  13196-2 0  9995
2 43793  97.4824 218.7430 0007658 194.0296 166.0754 15.68013919354750
JO-97
1 43803U 18099AX  25142.15910688  .00009706  00000-0  44798-3 0  9994
2 43803  97.4675 201.4047 0007379 195.7746 164.3260 15.20405626353971
Suomi 100
1 43804U 18099AY  25142.60568657  .00007981  00000-0  39466-3 0  9999
2 43804  97.4742 201.1938 0012124 202.5917 157.4785 15.18030481353979
ISAT
1 43879U 18111D   25142.50421518  .00016846  00000-0  59584-3 0  9992
2 43879  97.5970  56.5062 0006442 258.7683 101.2833 15.29221267350934
UWE-4
1 43880U 18111E   25142.50356278  .00012882  00000-0  51230-3 0  9990
2 43880  97.5912  55.1079 0009882 275.3890  84.6220 15.25379992350873
Sparrow
1 43881U 18111F   25142.50047711  .00017738  00000-0  60498-3 0  9991
2 43881  97.6110  59.3112 0004980 317.4794  42.6060 15.30404335351024
Prox-1
1 44339U 19036A   25142.47824657  .00008715  00000-0  11029-2 0  9995
2 44339  23.9960 180.6700 0006954 221.5658 138.4311 14.79593894315334
SONATE
1 44400U 19038Q   25142.57735711  .00188104  00000-0  76475-3 0  9997
2 44400  97.6913 167.2425 0002101 247.1765 112.9283 15.85715983326719
